This demonstration page uses our WeatherBlox Daily Observations layout. Learn more.

Left ArrowRight Arrow

Hourly Observations for January 6, 2018

Temp ( °F °C ) Dew Point ( °F °C ) Humidity (%) Winds ( mph kmh ) Pressure ( in mb ) Visibility ( mi km ) Precip ( " mm )
12:53 am 00:53 Clear 29 -1.7 20 -6.7 69 69 Calm 30.15 1021 10 16 0.00 0.00
1:53 am 01:53 Clear 28 -2.2 21 -6.1 75 75 NNE 5 7 30.15 1021 10 16 0.00 0.00
2:53 am 02:53 Clear 27 -2.8 20 -6.7 75 75 N 5 7 30.16 1021 10 16 0.00 0.00
3:53 am 03:53 Clear 26 -3.3 20 -6.7 78 78 N 8 13 30.17 1022 10 16 0.00 0.00
4:53 am 04:53 Clear 25 -3.9 20 -6.7 81 81 N 7 11 30.15 1021 10 16 0.00 0.00
5:53 am 05:53 Clear 24 -4.4 19 -7.2 81 81 N 7 11 30.16 1021 10 16 0.00 0.00
6:53 am 06:53 Clear 24 -4.4 20 -6.7 84 84 N 7 11 30.17 1022 10 16 0.00 0.00
7:53 am 07:53 Clear 24 -4.4 20 -6.7 84 84 NNW 8 13 30.20 1023 10 16 0.00 0.00
8:53 am 08:53 Sunny 31 -0.6 24 -4.4 76 76 N 3 6 30.19 1023 10 16 0.00 0.00
9:53 am 09:53 Sunny 43 6.1 32 0 65 65 Calm 30.19 1022 10 16 0.00 0.00
10:53 am 10:53 Sunny 50 10 32 0 50 50 Calm 30.20 1023 10 16 0.00 0.00
11:53 am 11:53 Sunny 56 13.3 31 -0.6 39 39 Calm 30.19 1022 10 16 0.00 0.00
12:53 pm 12:53 Sunny 59 15 29 -1.7 32 32 Calm 30.14 1021 10 16 0.00 0.00
1:53 pm 13:53 Sunny 61 16.1 29 -1.7 30 30 S 6 9 30.10 1019 10 16 0.00 0.00
2:53 pm 14:53 Sunny 65 18.3 29 -1.7 26 26 SE 6 9 30.06 1018 10 16 0.00 0.00
3:53 pm 15:53 Sunny 67 19.4 27 -2.8 22 22 SSE 12 19 30.03 1017 10 16 0.00 0.00
4:53 pm 16:53 Sunny 66 18.9 26 -3.3 22 22 SSE 12 19 30.02 1017 10 16 0.00 0.00
5:53 pm 17:53 Sunny 59 15 26 -3.3 28 28 SSE 10 17 30.02 1017 10 16 0.00 0.00
6:53 pm 18:53 Clear 56 13.3 29 -1.7 36 36 SSE 12 19 30.02 1017 10 16 0.00 0.00
7:53 pm 19:53 Clear 51 10.6 34 1.1 52 52 SE 10 17 30.04 1017 10 16 0.00 0.00
8:53 pm 20:53 Clear 47 8.3 35 1.7 63 63 SE 9 15 30.03 1017 10 16 0.00 0.00
9:53 pm 21:53 Clear 44 6.7 36 2.2 73 73 SE 10 17 30.00 1016 10 16 0.00 0.00
10:53 pm 22:53 Clear 44 6.7 37 2.8 76 76 SSE 9 15 29.98 1015 10 16 0.00 0.00
11:53 pm 23:53 Clear 44 6.7 38 3.3 79 79 SSE 8 13 29.95 1014 10 16 0.00 0.00

Powered by AerisWeather